Weather History for Northolt, United Kingdom

Change the Weather History Date:

Thursday, October 18, 2012

  Actual Average Record
Temperature  
Mean Temperature 58 °F -  
Max Temperature 62 °F 53 °F 71 °F (1997)
Min Temperature 53 °F 42 °F 32 °F (1998)
Degree Days  
Heating Degree Days 8    
Growing Degree Days 8 (Base 50)    
Moisture  
Dew Point 51 °F    
Average Humidity 79    
Maximum Humidity 88    
Minimum Humidity 59    
Precipitation  
Precipitation 0.00 in - - ()
Sea Level Pressure  
Sea Level Pressure 29.57 in    
Wind  
Wind Speed 9 mph ()    
Max Wind Speed 17 mph    
Max Gust Speed -    
Visibility 6.2 miles    
Events Rain    
Averages and records for this station are not official NWS values.
T = Trace of Precipitation, MM = Missing Value Source: Averaged Metar Reports

Daily Weather History Graph

Daily Weather History Graph

Search for Another Location

Airport:

Trip Planner

Search our weather history database for the weather conditions in past years. The results will help you decide how hot, cold, wet, or windy it might be!

Date:

Astronomy

Oct. 18, 2012 Rise Set
Actual Time 7:31 AM BST 6:01 PM BST
Civil Twilight 6:57 AM BST 6:35 PM BST
Nautical Twilight 6:18 AM BST 7:13 PM BST
Astronomical Twilight 5:39 AM BST 7:52 PM BST
Moon 11:22 AM BST (10/18) 7:54 PM BST (10/18)
Length of Visible Light 11h 37m
Length of Day
10h 29m
Waxing Crescent, 12% of the Moon is Illuminated
Oct 18
Waxing Crescent
Oct 22
First Quarter
Oct 29
Full
Nov 7
Last Quarter
Nov 13
New

Hourly Weather History & Observations

Time (BST) Temp. Dew Point Humidity Pressure Visibility Wind Dir Wind Speed Gust Speed Precip Events Conditions
12:50 AM 56 °F 51 °F 78% 29.49 in 25 mi South 9.2 mph - -   Mostly Cloudy
12:50 AM 55.4 °F 51.8 °F 88% 29.47 in 6.2 mi South 9.2 mph - N/A   Scattered Clouds
1:50 AM 55.4 °F 51.8 °F 88% 29.47 in 6.2 mi South 9.2 mph - N/A   Mostly Cloudy
2:50 AM 55.4 °F 51.8 °F 88% 29.47 in 6.2 mi South 8.1 mph - N/A   Mostly Cloudy
3:50 AM 55 °F 51 °F 83% 29.49 in 28 mi South 9.2 mph - -   Overcast
3:50 AM 55.4 °F 51.8 °F 88% 29.47 in 6.2 mi South 9.2 mph - N/A   Overcast
4:50 AM 55.4 °F 51.8 °F 88% 29.47 in 6.2 mi SSW 10.4 mph - N/A   Mostly Cloudy
5:50 AM 55.4 °F 51.8 °F 88% 29.47 in 6.2 mi South 6.9 mph - N/A   Overcast
6:50 AM 55 °F 51 °F 81% 29.50 in 28 mi South 9.2 mph - -   Partly Cloudy
6:50 AM 55.4 °F 51.8 °F 88% 29.50 in 6.2 mi South 9.2 mph - N/A   Mostly Cloudy
7:50 AM 53.6 °F 50.0 °F 88% 29.50 in 6.2 mi South 8.1 mph - N/A   Scattered Clouds
8:50 AM 55.4 °F 50.0 °F 82% 29.53 in 6.2 mi South 6.9 mph - N/A   Scattered Clouds
9:50 AM 56 °F 51 °F 80% 29.59 in 22 mi South 10.4 mph - -   Scattered Clouds
9:50 AM 57.2 °F 51.8 °F 82% 29.56 in 6.2 mi South 10.4 mph - N/A   Mostly Cloudy
10:50 AM 59.0 °F 51.8 °F 77% 29.56 in 6.2 mi South 10.4 mph - N/A   Mostly Cloudy
11:50 AM 59.0 °F 50.0 °F 72% 29.59 in 6.2 mi SSW 13.8 mph - N/A   Mostly Cloudy
12:50 PM 60 °F 51 °F 63% 29.60 in 28 mi SSW 17.3 mph - -   Partly Cloudy
12:50 PM 60.8 °F 50.0 °F 68% 29.59 in 6.2 mi SSW 17.3 mph - N/A   Mostly Cloudy
1:50 PM 60.8 °F 48.2 °F 63% 29.59 in 6.2 mi SSW 13.8 mph - N/A   Mostly Cloudy
2:50 PM 60.8 °F 46.4 °F 59% 29.59 in 6.2 mi SSW 16.1 mph - N/A   Mostly Cloudy
3:50 PM 60.8 °F 48.2 °F 63% 29.59 in 6.2 mi South 12.7 mph - N/A   Mostly Cloudy
4:50 PM 59.0 °F 48.2 °F 67% 29.62 in 6.2 mi South 12.7 mph - N/A   Mostly Cloudy
5:50 PM 57.2 °F 50.0 °F 77% 29.62 in 6.2 mi South 10.4 mph - N/A   Mostly Cloudy
6:50 PM 57 °F 51 °F 72% 29.65 in 25 mi South 9.2 mph - -   Scattered Clouds
6:50 PM 57.2 °F 50.0 °F 77% 29.65 in 6.2 mi South 9.2 mph - N/A   Mostly Cloudy
7:50 PM 57.2 °F 51.8 °F 82% 29.65 in 6.2 mi South 8.1 mph - N/A   Mostly Cloudy
8:50 PM 57.2 °F 51.8 °F 82% 29.65 in 6.2 mi South 6.9 mph - N/A Rain Light Rain
9:50 PM 57 °F 52 °F 78% 29.69 in 22 mi South 11.5 mph - - Rain Light Rain
9:50 PM 57.2 °F 51.8 °F 82% 29.68 in 6.2 mi South 11.5 mph - N/A   Mostly Cloudy
10:50 PM 57.2 °F 51.8 °F 82% 29.71 in 6.2 mi SW 6.9 mph - N/A   Mostly Cloudy
11:50 PM 55.4 °F 51.8 °F 88% 29.71 in 6.2 mi SSW 3.5 mph - N/A   Mostly Cloudy